Location: Pryor
(45.4297°N, 108.5332°W)
Time: 07:13:08
(UTC+00:00)

ISS - Visible Passes

Search period start: 28 January 2022 00:00
Search period end: 07 February 2022 00:00
Orbit: 413 x 422 km, 51.6° (Epoch: 27 January)

Date Brightness Start Highest point End Pass type
(mag) Time Alt. Az. Time Alt. Az. Time Alt. Az.
28 Jan -2.5 01:49:53 10° NW 01:52:49 28° N 01:53:09 27° NNE visible
29 Jan -2.4 01:01:41 10° WNW 01:04:35 27° N 01:07:05 12° ENE visible
29 Jan -1.5 02:38:38 10° NW 02:40:01 22° NW 02:40:01 22° NW visible
30 Jan -3.0 01:50:34 10° NW 01:53:41 35° NNE 01:53:59 35° NNE visible
31 Jan -2.6 01:02:25 10° NW 01:05:26 30° N 01:07:59 13° ENE visible
31 Jan -1.9 02:39:09 10° WNW 02:40:56 29° WNW 02:40:56 29° WNW visible
01 Feb -3.7 01:51:02 10° WNW 01:54:21 61° NNE 01:55:01 48° ENE visible
02 Feb -3.3 01:02:55 10° NW 01:06:09 44° NNE 01:09:12 11° E visible
02 Feb -2.0 02:39:46 10° WNW 02:42:09 32° WSW 02:42:09 32° WSW visible
03 Feb -3.4 01:51:30 10° WNW 01:54:48 60° SSW 01:56:29 26° SE visible
04 Feb -3.8 01:03:18 10° WNW 01:06:39 87° NNE 01:09:59 10° ESE visible
04 Feb -1.1 02:41:00 10° W 02:43:00 15° SW 02:43:58 14° SSW visible
05 Feb -1.5 01:52:15 10° W 01:55:00 24° SW 01:57:45 10° SSE visible
06 Feb -2.3 01:03:48 10° WNW 01:06:56 38° SW 01:10:03 10° SSE visible
